Time,TemperatureF,DewpointF,PressureIn,WindDirection,WindDirectionDegrees,WindSpeedMPH,WindSpeedGustMPH,Humidity,HourlyPrecipIn,Conditions,Clouds,dailyrainin,SolarRadiationWatts/m^2,SoftwareType,DateUTC
2013-05-15 00:12:00,61.4,57.0,30.02,ENE,71,0.0,-999.0,85,-99.99,,,0.00,0,weatherlink.com 1.10,2013-05-15 07:12:00,
2013-05-15 00:28:00,61.7,57.0,30.01,SSE,151,0.0,-999.0,85,-99.99,,,0.00,0,weatherlink.com 1.10,2013-05-15 07:28:00,
2013-05-15 00:42:00,61.8,57.0,30.01,SSE,152,0.0,-999.0,85,-99.99,,,0.00,0,weatherlink.com 1.10,2013-05-15 07:42:00,
2013-05-15 00:58:00,61.8,57.0,30.01,ESE,117,1.0,-999.0,84,-99.99,,,0.00,0,weatherlink.com 1.10,2013-05-15 07:58:00,
2013-05-15 01:12:00,61.6,57.0,30.02,SE,140,0.0,-999.0,84,-99.99,,,0.00,0,weatherlink.com 1.10,2013-05-15 08:12:00,
2013-05-15 01:28:00,61.4,57.0,30.01,SE,140,0.0,-999.0,84,-99.99,,,0.00,0,weatherlink.com 1.10,2013-05-15 08:28:00,
2013-05-15 01:44:00,61.3,57.0,30.01,ESE,103,0.0,-999.0,84,-99.99,,,0.00,0,weatherlink.com 1.10,2013-05-15 08:44:00,
2013-05-15 01:59:00,61.3,56.0,30.00,ESE,107,0.0,-999.0,83,-99.99,,,0.00,0,weatherlink.com 1.10,2013-05-15 08:59:00,
2013-05-15 02:14:00,61.1,56.0,30.00,East,82,1.0,-999.0,83,-99.99,,,0.00,0,weatherlink.com 1.10,2013-05-15 09:14:00,
2013-05-15 02:29:00,60.7,56.0,30.00,East,82,0.0,-999.0,84,-99.99,,,0.00,0,weatherlink.com 1.10,2013-05-15 09:29:00,
2013-05-15 02:45:00,60.8,56.0,30.01,East,94,0.0,-999.0,84,-99.99,,,0.00,0,weatherlink.com 1.10,2013-05-15 09:45:00,
2013-05-15 02:59:00,60.6,55.0,30.00,ESE,114,0.0,-999.0,83,-99.99,,,0.00,0,weatherlink.com 1.10,2013-05-15 09:59:00,
2013-05-15 03:15:00,60.4,55.0,30.00,ESE,114,0.0,-999.0,83,-99.99,,,0.00,0,weatherlink.com 1.10,2013-05-15 10:15:00,
2013-05-15 03:30:00,60.0,55.0,30.00,East,83,0.0,-999.0,84,-99.99,,,0.00,0,weatherlink.com 1.10,2013-05-15 10:30:00,
2013-05-15 03:45:00,59.9,55.0,30.00,East,82,0.0,-999.0,84,-99.99,,,0.00,0,weatherlink.com 1.10,2013-05-15 10:45:00,
2013-05-15 04:00:00,59.7,55.0,30.00,ENE,68,0.0,-999.0,84,-99.99,,,0.00,0,weatherlink.com 1.10,2013-05-15 11:00:00,
2013-05-15 04:15:00,59.7,55.0,30.01,ENE,68,0.0,-999.0,84,-99.99,,,0.00,0,weatherlink.com 1.10,2013-05-15 11:15:00,
2013-05-15 04:30:00,59.9,55.0,30.01,ENE,75,1.0,-999.0,85,-99.99,,,0.00,0,weatherlink.com 1.10,2013-05-15 11:30:00,
2013-05-15 04:46:00,60.2,55.0,30.01,East,82,0.0,-999.0,84,-99.99,,,0.00,0,weatherlink.com 1.10,2013-05-15 11:46:00,
2013-05-15 05:01:00,60.3,55.0,30.01,East,82,0.0,-999.0,83,-99.99,,,0.00,0,weatherlink.com 1.10,2013-05-15 12:01:00,
2013-05-15 05:31:00,60.6,55.0,30.01,East,100,0.0,-999.0,83,-99.99,,,0.00,0,weatherlink.com 1.10,2013-05-15 12:31:00,
2013-05-15 05:47:00,60.8,55.0,30.01,SE,129,1.0,-999.0,82,-99.99,,,0.00,0,weatherlink.com 1.10,2013-05-15 12:47:00,
2013-05-15 06:01:00,60.7,55.0,30.02,SSW,198,1.0,-999.0,82,-99.99,,,0.00,5,weatherlink.com 1.10,2013-05-15 13:01:00,
2013-05-15 06:17:00,60.6,55.0,30.02,SE,143,2.0,-999.0,81,-99.99,,,0.00,14,weatherlink.com 1.10,2013-05-15 13:17:00,
2013-05-15 06:32:00,60.5,55.0,30.02,SE,136,2.0,-999.0,81,-99.99,,,0.00,25,weatherlink.com 1.10,2013-05-15 13:32:00,
2013-05-15 06:48:00,60.5,55.0,30.03,South,172,0.0,-999.0,81,-99.99,,,0.00,40,weatherlink.com 1.10,2013-05-15 13:48:00,
2013-05-15 07:02:00,60.7,55.0,30.03,East,85,3.0,-999.0,81,-99.99,,,0.00,83,weatherlink.com 1.10,2013-05-15 14:02:00,
2013-05-15 07:18:00,61.5,55.0,30.04,East,91,0.0,-999.0,79,-99.99,,,0.00,146,weatherlink.com 1.10,2013-05-15 14:18:00,
2013-05-15 07:32:00,62.0,55.0,30.04,SSW,209,1.0,-999.0,77,-99.99,,,0.00,190,weatherlink.com 1.10,2013-05-15 14:32:00,
2013-05-15 07:48:00,62.9,55.0,30.04,SSE,160,0.0,-999.0,75,-99.99,,,0.00,325,weatherlink.com 1.10,2013-05-15 14:48:00,
2013-05-15 08:04:00,63.6,55.0,30.04,ESE,115,1.0,-999.0,73,-99.99,,,0.00,390,weatherlink.com 1.10,2013-05-15 15:04:00,
2013-05-15 08:19:00,64.5,55.0,30.04,South,170,2.0,-999.0,71,-99.99,,,0.00,445,weatherlink.com 1.10,2013-05-15 15:19:00,
2013-05-15 08:35:00,65.2,55.0,30.04,SSW,202,2.0,-999.0,70,-99.99,,,0.00,496,weatherlink.com 1.10,2013-05-15 15:35:00,
2013-05-15 08:49:00,66.0,55.0,30.04,SW,229,2.0,-999.0,68,-99.99,,,0.00,548,weatherlink.com 1.10,2013-05-15 15:49:00,
2013-05-15 09:04:00,66.6,55.0,30.04,SSW,212,3.0,-999.0,67,-99.99,,,0.00,596,weatherlink.com 1.10,2013-05-15 16:04:00,
2013-05-15 09:20:00,67.9,56.0,30.04,SE,141,0.0,-999.0,65,-99.99,,,0.00,645,weatherlink.com 1.10,2013-05-15 16:20:00,
2013-05-15 09:36:00,68.6,54.0,30.04,South,189,3.0,-999.0,61,-99.99,,,0.00,689,weatherlink.com 1.10,2013-05-15 16:36:00,
2013-05-15 09:50:00,70.0,55.0,30.04,South,187,3.0,-999.0,60,-99.99,,,0.00,728,weatherlink.com 1.10,2013-05-15 16:50:00,
2013-05-15 10:05:00,70.3,56.0,30.04,SSE,153,0.0,-999.0,60,-99.99,,,0.00,763,weatherlink.com 1.10,2013-05-15 17:05:00,
2013-05-15 10:36:00,70.8,57.0,30.04,SSW,210,4.0,-999.0,61,-99.99,,,0.00,828,weatherlink.com 1.10,2013-05-15 17:36:00,
2013-05-15 10:51:00,70.8,57.0,30.04,SSW,200,0.0,-999.0,61,-99.99,,,0.00,858,weatherlink.com 1.10,2013-05-15 17:51:00,
2013-05-15 11:07:00,71.0,57.0,30.05,SSW,207,4.0,-999.0,61,-99.99,,,0.00,881,weatherlink.com 1.10,2013-05-15 18:07:00,
2013-05-15 11:21:00,71.2,57.0,30.05,South,179,0.0,-999.0,61,-99.99,,,0.00,904,weatherlink.com 1.10,2013-05-15 18:21:00,
2013-05-15 11:37:00,72.3,58.0,30.05,South,176,5.0,-999.0,60,-99.99,,,0.00,925,weatherlink.com 1.10,2013-05-15 18:37:00,
2013-05-15 11:51:00,73.2,57.0,30.04,SSE,158,0.0,-999.0,58,-99.99,,,0.00,940,weatherlink.com 1.10,2013-05-15 18:51:00,
2013-05-15 12:07:00,72.8,58.0,30.04,SSW,213,3.0,-999.0,60,-99.99,,,0.00,949,weatherlink.com 1.10,2013-05-15 19:07:00,
2013-05-15 12:21:00,72.6,58.0,30.04,South,188,2.0,-999.0,61,-99.99,,,0.00,956,weatherlink.com 1.10,2013-05-15 19:21:00,
2013-05-15 12:37:00,74.0,59.0,30.03,South,191,1.0,-999.0,59,-99.99,,,0.00,958,weatherlink.com 1.10,2013-05-15 19:37:00,
2013-05-15 12:53:00,74.4,58.0,30.03,South,169,7.0,-999.0,57,-99.99,,,0.00,965,weatherlink.com 1.10,2013-05-15 19:53:00,
2013-05-15 13:08:00,74.2,58.0,30.03,South,182,7.0,-999.0,57,-99.99,,,0.00,953,weatherlink.com 1.10,2013-05-15 20:08:00,
2013-05-15 13:54:00,73.0,57.0,30.02,West,263,3.0,-999.0,58,-99.99,,,0.00,925,weatherlink.com 1.10,2013-05-15 20:54:00,
2013-05-15 14:08:00,71.8,57.0,30.02,WNW,285,4.0,-999.0,61,-99.99,,,0.00,905,weatherlink.com 1.10,2013-05-15 21:08:00,
2013-05-15 14:23:00,72.5,58.0,30.01,South,191,6.0,-999.0,60,-99.99,,,0.00,877,weatherlink.com 1.10,2013-05-15 21:23:00,
2013-05-15 14:55:00,74.3,57.0,30.00,SSW,195,6.0,-999.0,56,-99.99,,,0.00,830,weatherlink.com 1.10,2013-05-15 21:55:00,
2013-05-15 15:09:00,74.2,57.0,30.00,West,270,2.0,-999.0,56,-99.99,,,0.00,784,weatherlink.com 1.10,2013-05-15 22:09:00,
2013-05-15 15:25:00,73.0,57.0,29.99,WSW,237,2.0,-999.0,58,-99.99,,,0.00,747,weatherlink.com 1.10,2013-05-15 22:25:00,
2013-05-15 15:41:00,73.6,57.0,29.99,West,263,5.0,-999.0,56,-99.99,,,0.00,696,weatherlink.com 1.10,2013-05-15 22:41:00,
2013-05-15 15:55:00,73.6,57.0,29.99,SSW,193,4.0,-999.0,57,-99.99,,,0.00,661,weatherlink.com 1.10,2013-05-15 22:55:00,
2013-05-15 16:11:00,72.8,57.0,29.99,South,188,7.0,-999.0,58,-99.99,,,0.00,613,weatherlink.com 1.10,2013-05-15 23:11:00,
2013-05-15 16:25:00,72.6,57.0,29.99,SSE,160,5.0,-999.0,58,-99.99,,,0.00,570,weatherlink.com 1.10,2013-05-15 23:25:00,
2013-05-15 16:41:00,71.7,57.0,29.99,SSE,149,2.0,-999.0,60,-99.99,,,0.00,524,weatherlink.com 1.10,2013-05-15 23:41:00,
2013-05-15 16:55:00,71.1,56.0,29.99,SSW,193,5.0,-999.0,60,-99.99,,,0.00,471,weatherlink.com 1.10,2013-05-15 23:55:00,
2013-05-15 17:11:00,70.2,56.0,29.99,SW,231,5.0,-999.0,62,-99.99,,,0.00,420,weatherlink.com 1.10,2013-05-16 00:11:00,
2013-05-15 18:11:00,66.0,56.0,29.98,WSW,253,0.0,-999.0,69,-99.99,,,0.00,65,weatherlink.com 1.10,2013-05-16 01:11:00,
2013-05-15 18:26:00,65.7,56.0,29.98,SSW,200,3.0,-999.0,71,-99.99,,,0.00,47,weatherlink.com 1.10,2013-05-16 01:26:00,
2013-05-15 18:56:00,64.2,55.0,29.98,WSW,246,0.0,-999.0,73,-99.99,,,0.00,30,weatherlink.com 1.10,2013-05-16 01:56:00,
2013-05-15 19:11:00,62.6,55.0,29.98,WSW,243,2.0,-999.0,76,-99.99,,,0.00,26,weatherlink.com 1.10,2013-05-16 02:11:00,
2013-05-15 19:26:00,61.7,55.0,29.98,SW,231,0.0,-999.0,78,-99.99,,,0.00,12,weatherlink.com 1.10,2013-05-16 02:26:00,
2013-05-15 19:56:00,61.1,55.0,29.99,SW,227,0.0,-999.0,79,-99.99,,,0.00,0,weatherlink.com 1.10,2013-05-16 02:56:00,
2013-05-15 20:11:00,60.7,55.0,29.99,SW,227,0.0,-999.0,80,-99.99,,,0.00,0,weatherlink.com 1.10,2013-05-16 03:11:00,
2013-05-15 20:26:00,60.5,54.0,29.99,SE,140,1.0,-999.0,80,-99.99,,,0.00,0,weatherlink.com 1.10,2013-05-16 03:26:00,
2013-05-15 20:41:00,60.3,54.0,30.00,East,87,0.0,-999.0,80,-99.99,,,0.00,0,weatherlink.com 1.10,2013-05-16 03:41:00,
2013-05-15 20:56:00,60.2,54.0,30.00,ESE,122,0.0,-999.0,81,-99.99,,,0.00,0,weatherlink.com 1.10,2013-05-16 03:56:00,
2013-05-15 21:11:00,59.9,54.0,30.00,ESE,122,0.0,-999.0,81,-99.99,,,0.00,0,weatherlink.com 1.10,2013-05-16 04:11:00,
2013-05-15 21:26:00,59.4,54.0,30.01,ESE,122,0.0,-999.0,82,-99.99,,,0.00,0,weatherlink.com 1.10,2013-05-16 04:26:00,
2013-05-15 21:41:00,58.9,54.0,30.01,ESE,122,0.0,-999.0,83,-99.99,,,0.00,0,weatherlink.com 1.10,2013-05-16 04:41:00,
2013-05-15 21:56:00,58.4,53.0,30.01,ESE,122,0.0,-999.0,82,-99.99,,,0.00,0,weatherlink.com 1.10,2013-05-16 04:56:00,
2013-05-15 22:11:00,57.9,53.0,30.01,ESE,122,0.0,-999.0,83,-99.99,,,0.00,0,weatherlink.com 1.10,2013-05-16 05:11:00,
2013-05-15 22:26:00,57.5,52.0,30.01,ESE,122,0.0,-999.0,82,-99.99,,,0.00,0,weatherlink.com 1.10,2013-05-16 05:26:00,
2013-05-15 22:41:00,57.6,53.0,30.01,ESE,122,0.0,-999.0,83,-99.99,,,0.00,0,weatherlink.com 1.10,2013-05-16 05:41:00,
2013-05-15 22:56:00,57.7,53.0,30.00,SE,136,0.0,-999.0,83,-99.99,,,0.00,0,weatherlink.com 1.10,2013-05-16 05:56:00,
2013-05-15 23:11:00,58.2,53.0,30.00,SE,136,0.0,-999.0,83,-99.99,,,0.00,0,weatherlink.com 1.10,2013-05-16 06:11:00,
2013-05-15 23:26:00,58.1,53.0,30.00,SE,136,0.0,-999.0,82,-99.99,,,0.00,0,weatherlink.com 1.10,2013-05-16 06:26:00,
2013-05-15 23:41:00,58.2,53.0,30.00,SE,136,0.0,-999.0,82,-99.99,,,0.00,0,weatherlink.com 1.10,2013-05-16 06:41:00,
2013-05-15 23:56:00,58.4,53.0,30.00,SE,136,0.0,-999.0,82,-99.99,,,0.00,0,weatherlink.com 1.10,2013-05-16 06:56:00,